This is the latest recevied weather packets stored in our database for station/object N3UJJ-1. If no packets are shown the sender has not sent any weather packets the latest 10 day(s).
| Time | Temp. | Humidity | Pressure | Rain* | Wind** | Luminosity | Snow |
|---|---|---|---|---|---|---|---|
| 1778011261 | 28.33° C | 36% | 1008.6 hPa | 0 mm | - | - | - |
| 1778010361 | 28.33° C | 37% | 1008.8 hPa | 0 mm | - | - | - |
| 1778009461 | 28.33° C | 36% | 1009.1 hPa | 0 mm | - | - | - |
| 1778008561 | 28.33° C | 38% | 1009.4 hPa | 0 mm | - | - | - |
| 1778007660 | 28.33° C | 37% | 1009.7 hPa | 0 mm | - | - | - |
| 1778006760 | 28.33° C | 38% | 1009.9 hPa | 0 mm | - | - | - |
| 1778005860 | 28.33° C | 40% | 1010 hPa | 0 mm | - | - | - |
| 1778004960 | 28.33° C | 39% | 1010.2 hPa | 0 mm | - | - | - |
| 1778004059 | 27.78° C | 39% | 1010.3 hPa | 0 mm | - | - | - |
| 1778003159 | 27.78° C | 42% | 1010.4 hPa | 0 mm | - | - | - |
| 1778002259 | 27.22° C | 41% | 1010.4 hPa | 0 mm | - | - | - |
| 1778001359 | 27.22° C | 42% | 1010.5 hPa | 0 mm | - | - | - |
| 1778000459 | 27.22° C | 42% | 1010.7 hPa | 0 mm | - | - | - |
| 1777999559 | 27.22° C | 42% | 1011 hPa | 0 mm | - | - | - |
| 1777998659 | 26.67° C | 46% | 1011.3 hPa | 0 mm | - | - | - |
| 1777997759 | 26.67° C | 45% | 1011.4 hPa | 0 mm | - | - | - |
| 1777996859 | 26.67° C | 47% | 1011.6 hPa | 0 mm | - | - | - |
| 1777995958 | 26.11° C | 48% | 1011.7 hPa | 0 mm | - | - | - |
| 1777995058 | 25.56° C | 50% | 1011.8 hPa | 0 mm | - | - | - |
| 1777994158 | 25° C | 50% | 1011.7 hPa | 0 mm | - | - | - |
| 1777993258 | 25° C | 51% | 1011.7 hPa | 0 mm | - | - | - |
| 1777992359 | 24.44° C | 53% | 1011.8 hPa | 0 mm | - | - | - |
| 1777991457 | 23.89° C | 54% | 1011.9 hPa | 0 mm | - | - | - |
| 1777990557 | 23.33° C | 54% | 1011.9 hPa | 0 mm | - | - | - |
| 1777989657 | 22.78° C | 56% | 1011.8 hPa | 0 mm | - | - | - |
* Rain latest hour (hover to see other rain measurements)
** Current wind speed in m/s (hover to see current wind gust speed)